Temp
48 48 48 48 49 49 49 49 49 49 48 48 48 49 48 48 48 45 42 46 44 38 42 46 48 42 43 42 34 39 37 38 36 33 32 31 30 35 34 37 34 32 30 27 29 26 24 43 41 33 29 33 34 33
48 48 48 47 47 47 48 48 48 48 48 48 48 49 49 48 48 48 39 47 48 42 41 49 49 51 50 49 44 41 39 39 40 34 34 35 32 32 33 28 41 30 35 28 30 26 34 37 35 36 36 34 33 34
47 47 47 47 46 47 48 48 48 48 48 48 49 49 47 48 48 46 42 45 45 40 40 41 43 50 55 53 55 40 40 46 43 43 37 36 33 33 30 31 33 38 41 29 30 32 33 35 37 37 37 35 37 37
47 47 47 45 46 47 48 48 48 48 48 48 49 48 47 48 48 47 44 46 46 41 34 36 52 49 54 55 52 49 47 47 45 41 38 35 33 41 34 36 33 37 37 31 29 31 33 34 34 35 35 36 35 36
47 46 46 44 45 47 48 47 47 47 48 48 48 48 48 49 48 46 46 46 45 42 34 35 46 51 52 51 49 49 46 43 38 36 31 31 37 38 37 37 29 38 32 27 25 33 31 32 34 36 34 34 35 34
46 46 45 44 46 47 47 47 47 47 47 48 48 48 49 49 49 45 38 46 47 44 38 32 43 45 49 48 47 46 44 41 39 36 31 34 40 36 28 27 37 38 39 38 31 37 34 34 37 37 34 34 35 34
46 46 45 43 47 47 47 46 47 47 47 47 48 48 49 49 43 40 37 43 47 44 38 32 34 43 46 45 41 42 43 39 39 36 34 34 35 36 29 28 36 35 36 37 37 36 32 34 30 36 35 35 36 33
46 45 44 46 47 46 46 46 47 47 47 47 48 49 49 49 47 42 45 47 46 43 41 30 32 35 45 35 35 39 36 37 36 34 35 32 34 33 27 35 35 36 37 36 36 35 34 34 34 34 33 32 29 28
44 43 46 46 46 46 46 46 47 48 48 48 49 48 45 42 38 41 48 47 44 42 31 29 27 25 41 35 35 35 35 26 34 30 32 33 28 26 33 35 35 37 36 34 35 35 36 33 33 32 30 30 28 27
43 45 46 46 46 46 46 46 47 48 48 49 44 36 30 38 46 46 41 34 36 39 38 31 34 29 36 29 29 28 29 25 24 29 33 26 26 35 39 39 39 37 38 36 31 30 32 31 30 31 30 31 30 29
46 46 46 46 46 46 47 47 47 48 47 40 33 30 39 47 42 37 28 28 31 30 35 34 34 31 38 29 27 29 23 26 23 27 26 23 26 32 39 37 39 38 38 37 36 34 35 34 32 31 30 30 30 28
46 46 46 46 46 46 47 47 47 41 39 41 40 42 40 38 33 30 25 30 31 29 31 31 33 35 34 34 29 27 24 25 25 29 22 20 28 35 37 36 35 35 35 34 35 32 32 33 32 30 29 29 28 28
46 46 46 46 46 46 46 47 47 47 45 41 36 32 30 27 22 21 18 25 24 29 32 32 30 33 34 34 28 24 19 19 29 17 19 25 30 34 36 36 33 34 34 33 32 32 32 30 29 28 22 17 17 16
46 46 46 46 46 46 46 46 47 44 39 30 27 20 20 18 26 28 30 27 29 30 32 30 29 30 28 28 26 19 27 26 15 12 22 25 31 31 32 34 34 30 30 30 27 27 26 25 19 18 20 17 15 12
46 46 46 46 46 46 46 47 46 40 33 29 29 19 20 28 30 29 28 30 32 33 30 29 31 32 27 23 28 24 19 15 20 20 26 26 31 32 32 32 30 26 23 21 19 21 19 17 19 12 8 13 14 10
45 45 42 46 46 47 46 44 41 39 33 31 30 24 25 27 28 27 25 26 34 33 28 29 28 25 24 25 25 20 23 17 25 31 30 27 28 28 29 28 26 23 22 20 19 20 17 16 17 15 9 10 8 11
43 34 46 46 46 46 46 40 37 34 30 30 27 31 27 30 29 30 25 29 34 32 25 28 25 27 29 24 25 26 23 30 30 30 27 30 28 27 25 23 22 22 21 19 16 16 14 14 14 16 13 8 9 9
34 40 46 46 43 42 40 38 31 31 28 27 26 28 30 31 29 30 28 31 33 32 30 28 31 28 20 23 24 30 30 29 30 28 31 28 26 23 24 23 20 21 20 18 16 14 14 14 16 16 13 11 11 10
38 40 46 46 43 37 32 34 35 28 28 29 28 26 26 28 29 31 32 32 30 31 31 30 28 25 23 26 28 30 31 30 27 29 29 31 30 24 19 19 18 17 19 16 17 18 17 16 18 16 16 16 15 14
44 43 43 45 44 36 34 31 36 30 25 26 27 26 26 25 26 27 29 30 32 29 29 29 25 25 28 28 29 29 30 30 29 27 27 28 30 28 25 21 21 19 18 16 16 16 16 16 18 19 19 18 16 15
39 38 42 40 37 36 32 30 30 30 30 27 29 30 25 27 26 26 27 31 27 28 27 28 27 27 30 29 29 29 30 29 28 28 29 24 28 29 27 27 27 25 21 17 17 13 15 16 18 21 16 16 17 16
36 42 35 37 31 32 30 31 30 31 29 28 28 29 22 18 19 22 29 26 27 26 27 26 25 24 24 25 29 30 28 27 27 26 24 25 26 26 25 26 26 25 25 23 20 18 19 20 21 20 17 14 16 17
40 37 32 32 25 22 23 31 28 30 23 25 27 24 21 20 25 30 19 26 26 26 27 23 22 23 23 28 30 30 27 27 28 30 29 29 29 28 27 27 28 27 26 26 27 26 24 25 23 20 19 14 14 15
39 29 22 20 22 13 23 20 29 27 25 24 23 18 21 21 26 19 17 20 23 26 24 20 23 22 27 29 27 25 25 27 25 28 29 29 28 28 29 29 29 29 30 29 28 28 27 26 24 22 19 16 16 18
24 21 19 12 19 16 12 12 16 21 12 17 17 13 17 22 12 11 16 17 17 19 15 17 21 23 21 21 23 22 26 25 22 23 26 27 27 28 27 26 26 27 28 26 24 25 26 23 22 20 20 20 19 19
14 16 18 16 14 17 18 11 9 12 12 12 12 20 20 12 9 10 16 12 11 15 10 13 15 19 20 21 18 18 20 24 24 23 25 26 25 21 21 21 21 23 25 21 21 21 19 18 21 21 21 21 20 20
10 12 25 30 26 26 18 18 24 16 10 10 12 13 15 15 6 12 16 17 17 17 20 21 22 19 18 21 23 22 23 23 23 24 26 26 26 25 23 19 18 20 23 21 21 19 18 17 19 22 22 16 20 23
19 21 13 15 17 21 11 10 10 11 11 22 20 11 11 7 8 12 14 17 19 21 23 22 22 22 21 21 19 18 16 18 19 23 25 24 23 24 25 24 20 21 15 12 12 12 14 15 19 22 22 20 20 19
16 20 21 11 10 13 12 15 16 22 24 24 20 13 10 12 12 14 16 18 20 19 17 16 16 18 18 19 18 17 16 16 16 17 15 12 12 16 16 17 18 18 20 22 20 14 15 14 16 18 20 20 24 20
16 24 15 10 8 11 18 24 23 24 20 16 16 15 13 10 12 14 13 15 13 12 14 14 14 13 11 13 13 13 15 15 14 12 10 9 13 16 17 16 15 17 18 17 17 17 20 16 18 18 19 22 22 19
23 24 16 11 10 19 23 25 25 25 22 12 12 7 6 7 7 10 10 11 10 10 10 9 10 11 11 11 11 9 8 13 13 12 11 10 12 12 14 17 18 17 17 16 16 17 18 17 15 16 13 12 12 10
19 18 18 17 15 19 24 16 13 10 10 8 7 6 3 4 -1 3 8 7 6 7 8 6 7 8 12 12 13 14 12 11 11 11 10 10 9 10 12 12 15 13 15 16 16 16 15 14 12 11 9 8 7 5
19 19 19 18 15 16 17 18 19 17 13 6 5 7 3 3 -1 3 7 9 6 5 6 7 9 9 12 12 12 13 15 14 16 16 16 14 12 11 10 11 13 13 13 11 10 10 9 8 7 5 4 2 -0 -2
MSLP
1002.74 1003.42 1004.07 1004.57 1005.08 1005.89 1006.56 1007.25 1007.77 1008.19 1008.63 1009.03 1009.33 1009.52 1009.65 1009.74 1009.65 1009.50 1009.11 1008.88 1008.68 1008.63 1008.08 1007.50 1007.43 1007.39 1007.66 1008.20 1009.11 1009.90 1010.38 1011.25 1012.31 1012.75 1012.89 1012.72 1012.62 1012.54 1012.60 1012.81 1013.11 1014.07 1015.17 1016.25 1017.22 1017.94 1018.08 1017.51 1018.19 1018.75 1019.94 1020.83 1021.58 1022.35
1002.77 1003.29 1003.87 1004.65 1005.26 1005.91 1006.50 1007.04 1007.53 1007.92 1008.34 1008.66 1008.90 1009.08 1009.20 1009.18 1009.29 1009.11 1009.01 1008.47 1008.39 1008.66 1008.39 1007.63 1007.57 1007.61 1007.84 1007.93 1008.44 1009.14 1010.07 1010.64 1011.33 1011.86 1012.30 1012.26 1012.42 1012.47 1012.65 1013.32 1013.24 1014.25 1014.60 1016.28 1017.67 1017.93 1018.08 1018.23 1018.48 1019.12 1019.92 1020.88 1021.96 1022.53
1002.90 1003.26 1003.88 1004.62 1005.15 1005.46 1006.37 1006.88 1007.40 1007.76 1008.10 1008.43 1008.60 1008.77 1008.96 1008.97 1008.84 1008.91 1008.68 1008.32 1008.08 1008.33 1008.95 1008.46 1008.05 1007.77 1007.37 1007.75 1008.01 1009.14 1010.21 1010.35 1010.85 1011.01 1011.79 1012.17 1012.45 1012.97 1012.93 1013.34 1013.73 1014.29 1014.84 1016.29 1017.73 1019.11 1019.10 1019.22 1019.57 1019.96 1020.59 1021.28 1022.02 1022.70
1002.97 1003.41 1003.82 1004.76 1005.18 1005.73 1006.27 1006.84 1007.31 1007.72 1007.99 1008.12 1008.39 1008.59 1008.89 1008.85 1008.56 1008.30 1007.97 1007.62 1007.76 1008.41 1009.16 1009.58 1008.19 1008.06 1007.60 1007.56 1008.10 1008.94 1009.54 1010.25 1010.73 1011.29 1012.01 1012.57 1013.11 1012.87 1012.87 1012.98 1013.69 1014.24 1015.14 1016.89 1018.72 1019.67 1020.01 1020.32 1020.43 1020.81 1021.38 1021.95 1022.65 1023.18
1003.05 1003.50 1003.85 1004.64 1005.04 1005.59 1006.29 1006.82 1007.31 1007.72 1007.93 1008.12 1008.23 1008.38 1008.62 1008.45 1008.01 1007.83 1007.64 1007.43 1007.16 1007.56 1009.19 1009.96 1009.49 1009.00 1008.17 1008.36 1008.89 1009.12 1009.61 1010.43 1011.21 1012.02 1012.69 1013.13 1012.79 1013.02 1013.09 1013.36 1014.28 1014.56 1015.51 1016.47 1017.57 1018.23 1019.04 1020.25 1020.85 1021.23 1021.89 1022.61 1023.19 1023.78
1003.21 1003.65 1004.14 1004.84 1005.31 1005.81 1006.41 1006.94 1007.36 1007.73 1008.00 1008.19 1008.21 1008.11 1008.00 1007.91 1007.80 1007.93 1008.08 1007.19 1007.12 1007.49 1008.57 1010.39 1010.23 1009.76 1009.71 1009.49 1009.59 1009.96 1010.24 1010.74 1011.52 1012.45 1013.19 1013.16 1012.71 1013.41 1013.96 1014.66 1014.91 1014.89 1015.07 1015.41 1016.44 1017.88 1018.74 1019.84 1020.76 1021.42 1022.19 1022.81 1023.51 1024.24
1003.36 1003.83 1004.58 1005.17 1005.46 1006.05 1006.67 1007.17 1007.57 1007.94 1008.20 1008.28 1008.52 1008.51 1008.03 1007.42 1007.64 1007.84 1008.02 1008.06 1007.72 1007.61 1008.77 1010.78 1011.20 1010.80 1010.39 1010.30 1010.86 1010.97 1010.96 1011.62 1012.05 1013.00 1013.46 1013.51 1013.34 1013.24 1014.10 1015.01 1015.42 1015.59 1015.61 1016.05 1016.67 1018.02 1019.85 1020.23 1020.99 1021.72 1022.46 1023.28 1024.05 1024.82
1003.45 1004.07 1004.71 1005.09 1005.69 1006.43 1006.91 1007.36 1007.77 1008.05 1008.34 1008.76 1008.70 1008.57 1007.98 1007.98 1007.92 1007.79 1007.53 1007.57 1007.67 1007.84 1009.06 1011.15 1012.05 1011.87 1011.24 1011.83 1012.21 1012.25 1012.50 1012.79 1013.27 1013.68 1013.70 1013.96 1013.81 1013.91 1014.86 1015.08 1015.64 1016.04 1016.43 1017.13 1017.73 1017.91 1018.77 1020.12 1021.19 1022.17 1023.01 1023.86 1024.77 1025.56
1003.79 1004.32 1004.60 1005.28 1006.05 1006.68 1007.17 1007.61 1007.89 1008.17 1008.57 1008.49 1008.59 1008.44 1008.58 1008.71 1008.80 1008.31 1007.68 1007.69 1007.55 1008.25 1009.82 1011.22 1012.18 1012.78 1012.07 1012.74 1013.12 1013.38 1013.71 1014.44 1014.43 1014.45 1014.45 1014.48 1014.77 1014.71 1014.47 1015.17 1015.76 1016.10 1016.45 1017.58 1018.25 1018.77 1019.62 1020.50 1021.53 1022.55 1023.41 1024.24 1025.02 1025.93
1004.00 1004.19 1004.81 1005.67 1006.45 1007.01 1007.49 1007.92 1008.25 1008.44 1008.55 1008.40 1008.42 1008.77 1009.23 1009.69 1009.02 1008.38 1008.24 1008.18 1008.42 1009.15 1010.09 1011.51 1011.98 1012.56 1012.67 1013.69 1014.40 1014.93 1015.17 1015.40 1015.42 1015.28 1014.81 1015.06 1015.03 1014.47 1014.29 1014.74 1015.40 1016.10 1016.68 1017.43 1018.65 1019.78 1020.36 1021.07 1021.78 1022.63 1023.44 1024.28 1025.05 1025.85
1003.92 1004.70 1005.56 1006.29 1006.84 1007.45 1007.93 1008.30 1008.55 1008.85 1008.89 1009.10 1009.50 1009.83 1009.53 1009.02 1008.78 1009.13 1009.85 1010.07 1010.22 1011.12 1011.34 1011.95 1012.19 1012.52 1012.99 1013.90 1014.88 1015.55 1016.08 1015.99 1016.06 1015.81 1015.62 1015.95 1015.34 1014.63 1014.59 1015.20 1015.84 1016.36 1016.98 1017.78 1018.49 1019.28 1019.93 1020.72 1021.66 1022.66 1023.63 1024.46 1025.28 1026.04
1004.67 1005.50 1006.20 1006.87 1007.51 1008.06 1008.43 1008.78 1009.12 1009.24 1009.32 1009.24 1009.27 1009.53 1009.50 1009.80 1010.53 1010.92 1011.52 1011.37 1011.42 1012.17 1012.22 1012.49 1012.77 1012.99 1013.53 1013.83 1015.12 1015.85 1016.31 1016.45 1016.31 1016.07 1016.27 1016.23 1014.71 1014.14 1014.62 1015.45 1016.19 1016.79 1017.49 1018.35 1019.05 1019.90 1020.63 1021.40 1022.15 1023.01 1023.88 1024.89 1025.65 1026.29
1005.48 1006.22 1006.95 1007.60 1008.19 1008.65 1009.16 1009.30 1009.24 1009.29 1009.30 1009.44 1009.65 1010.50 1011.11 1011.87 1012.19 1012.42 1012.59 1012.67 1012.69 1012.65 1012.66 1012.84 1013.33 1013.61 1014.02 1014.43 1015.77 1016.29 1016.68 1016.93 1016.30 1016.95 1016.70 1015.60 1014.83 1014.69 1015.01 1015.81 1016.81 1017.33 1017.98 1018.85 1019.69 1020.36 1021.11 1021.94 1022.72 1023.48 1024.57 1025.64 1026.23 1027.26
1006.43 1007.09 1007.70 1008.31 1008.84 1009.23 1009.42 1009.57 1009.56 1009.56 1009.80 1010.51 1011.46 1012.57 1013.07 1013.49 1013.35 1013.25 1013.18 1013.15 1013.15 1013.06 1013.13 1013.42 1013.99 1014.30 1014.84 1015.39 1016.14 1016.80 1016.91 1016.78 1017.11 1017.26 1016.39 1015.54 1015.09 1015.30 1015.69 1016.35 1017.21 1018.23 1018.92 1019.57 1020.29 1020.99 1021.77 1022.52 1023.40 1024.17 1024.85 1025.91 1026.85 1027.87
1007.33 1007.93 1008.51 1009.01 1009.30 1009.52 1009.60 1009.56 1009.62 1009.82 1010.53 1011.72 1012.49 1013.85 1014.26 1014.19 1014.03 1013.82 1013.55 1013.53 1013.55 1013.30 1013.45 1013.86 1014.34 1014.65 1015.43 1015.87 1016.22 1016.73 1017.04 1017.08 1016.93 1016.43 1015.94 1015.53 1015.60 1015.97 1016.63 1017.29 1018.08 1019.02 1019.93 1020.64 1021.12 1021.83 1022.54 1023.22 1024.07 1025.08 1025.72 1026.35 1027.03 1027.91
1008.24 1008.82 1009.46 1009.61 1009.82 1009.80 1009.93 1009.97 1009.93 1010.38 1011.87 1013.01 1013.93 1014.46 1014.71 1014.62 1014.55 1014.28 1014.32 1014.26 1013.77 1013.55 1013.74 1014.00 1014.63 1015.19 1015.63 1015.80 1016.28 1016.54 1016.67 1016.66 1016.46 1016.29 1016.12 1016.22 1016.59 1016.89 1017.56 1018.25 1019.00 1019.75 1020.41 1021.14 1021.80 1022.38 1023.14 1023.94 1024.56 1025.32 1026.28 1026.90 1027.46 1027.93
1009.13 1009.96 1010.15 1010.17 1010.27 1010.32 1010.32 1010.57 1011.06 1012.24 1013.39 1014.16 1014.91 1014.98 1015.13 1015.15 1015.05 1014.99 1014.88 1014.70 1014.10 1014.24 1014.85 1014.89 1015.11 1015.24 1015.47 1015.86 1016.28 1016.19 1016.39 1016.45 1016.52 1016.75 1016.95 1016.93 1017.25 1017.77 1018.46 1019.17 1019.89 1020.52 1021.15 1021.82 1022.49 1023.09 1023.71 1024.47 1025.04 1025.76 1026.65 1027.16 1027.60 1027.97
1010.23 1010.51 1010.67 1010.93 1011.08 1010.91 1010.74 1011.11 1012.37 1013.66 1014.78 1015.26 1015.40 1015.74 1015.68 1015.51 1015.59 1015.46 1015.28 1014.91 1014.77 1014.95 1015.12 1015.35 1015.35 1015.52 1016.14 1016.50 1016.69 1016.46 1016.71 1017.11 1017.34 1017.59 1017.75 1018.00 1018.36 1018.69 1019.01 1019.63 1020.34 1020.86 1021.48 1022.15 1022.80 1023.55 1024.12 1024.65 1025.11 1025.65 1026.14 1026.76 1027.57 1027.96
1010.97 1011.17 1011.17 1011.13 1011.25 1011.70 1012.05 1012.63 1013.05 1014.55 1015.38 1015.65 1015.86 1015.90 1015.97 1016.02 1015.94 1015.74 1015.47 1015.18 1015.02 1014.97 1015.20 1015.57 1016.15 1016.75 1017.26 1017.53 1017.53 1017.29 1017.37 1017.57 1017.94 1018.27 1018.56 1018.61 1018.89 1019.31 1019.73 1020.25 1020.81 1021.32 1021.88 1022.53 1023.13 1023.58 1023.91 1024.24 1024.67 1025.27 1025.77 1026.45 1027.05 1027.53
1011.39 1011.63 1011.57 1011.18 1011.39 1011.86 1012.61 1013.26 1013.34 1014.57 1015.57 1015.99 1016.01 1016.34 1016.55 1016.59 1016.40 1016.21 1015.85 1015.60 1015.50 1015.65 1016.39 1017.07 1017.87 1018.20 1018.17 1018.46 1018.42 1018.30 1018.31 1018.38 1018.53 1018.79 1019.03 1019.15 1019.37 1019.82 1020.18 1020.52 1021.02 1021.55 1022.13 1022.75 1023.20 1023.47 1023.94 1024.35 1024.61 1024.91 1025.23 1025.66 1026.31 1026.77
1011.76 1011.92 1011.49 1011.28 1011.65 1012.29 1013.54 1014.21 1014.61 1015.05 1015.60 1016.03 1016.36 1016.61 1017.09 1016.95 1017.05 1016.85 1016.66 1016.29 1016.70 1017.62 1018.19 1018.64 1019.14 1019.27 1019.09 1019.29 1019.17 1019.05 1019.05 1019.17 1019.20 1019.18 1019.09 1019.28 1019.49 1019.83 1020.28 1020.54 1020.79 1021.39 1021.99 1022.52 1022.95 1023.35 1023.58 1023.77 1024.01 1024.35 1024.62 1025.01 1025.35 1025.76
1013.01 1012.55 1012.62 1012.52 1013.46 1013.95 1014.59 1014.87 1015.09 1015.29 1015.80 1016.28 1016.53 1016.94 1017.55 1017.77 1017.93 1017.57 1017.43 1017.70 1018.75 1019.42 1019.54 1019.85 1020.19 1020.17 1019.94 1019.72 1019.58 1019.66 1019.66 1019.59 1019.35 1019.10 1019.03 1019.10 1019.59 1019.94 1020.13 1020.28 1020.64 1021.11 1021.56 1021.92 1022.29 1022.69 1022.86 1022.96 1023.28 1023.59 1023.86 1024.09 1024.52 1024.92
1013.30 1013.35 1013.93 1014.56 1015.41 1015.85 1016.19 1015.43 1015.73 1016.01 1016.57 1016.89 1017.07 1017.72 1018.25 1018.35 1018.25 1017.84 1018.62 1019.47 1020.20 1020.73 1020.71 1020.82 1020.66 1020.30 1020.21 1020.02 1019.86 1020.01 1020.00 1019.91 1019.78 1019.45 1019.42 1019.36 1019.17 1019.30 1019.65 1019.92 1020.06 1020.39 1020.78 1021.01 1021.26 1021.54 1021.83 1021.95 1022.40 1022.77 1023.01 1023.37 1023.77 1024.23
1014.15 1015.20 1016.06 1016.58 1017.04 1017.74 1017.29 1016.88 1016.61 1017.02 1017.35 1017.68 1018.22 1018.65 1018.83 1018.87 1018.87 1019.37 1020.23 1020.83 1021.52 1021.64 1021.87 1021.91 1021.48 1021.14 1020.93 1020.89 1021.00 1021.20 1020.97 1020.67 1020.51 1020.13 1019.81 1019.63 1019.44 1019.32 1019.44 1019.61 1019.78 1019.85 1019.97 1020.21 1020.62 1020.87 1021.06 1021.31 1021.59 1021.97 1022.33 1022.77 1023.13 1023.48
1015.81 1017.07 1017.51 1017.87 1017.92 1018.47 1018.62 1018.26 1018.32 1018.27 1018.74 1018.78 1019.00 1019.26 1019.63 1019.47 1020.30 1021.02 1021.55 1022.34 1022.88 1023.02 1023.17 1022.91 1022.58 1022.36 1022.33 1022.18 1022.13 1021.97 1021.68 1021.50 1021.31 1020.90 1020.62 1020.31 1019.93 1019.62 1019.71 1019.78 1019.88 1019.91 1019.83 1020.19 1020.57 1020.62 1020.76 1020.89 1021.08 1021.37 1021.71 1022.11 1022.50 1022.82
1017.22 1017.74 1018.13 1018.09 1018.40 1018.62 1018.78 1019.06 1018.92 1019.00 1019.39 1019.59 1019.92 1019.90 1019.97 1021.03 1021.83 1022.63 1023.21 1023.61 1023.89 1023.97 1024.08 1023.82 1023.44 1023.18 1023.03 1022.83 1022.71 1022.39 1022.15 1021.77 1021.58 1021.33 1021.18 1020.88 1020.72 1020.63 1020.66 1020.72 1020.65 1020.68 1020.66 1020.65 1020.72 1020.86 1020.94 1020.89 1020.93 1021.08 1021.30 1021.52 1021.78 1022.17
1018.36 1018.34 1018.10 1017.91 1018.11 1018.28 1018.81 1018.78 1018.78 1019.27 1019.79 1020.30 1020.33 1020.95 1021.40 1022.49 1023.32 1024.08 1024.36 1024.64 1024.59 1024.61 1024.40 1024.17 1023.90 1023.77 1023.59 1023.27 1022.97 1022.81 1022.48 1022.24 1022.09 1021.77 1021.57 1021.50 1021.49 1021.46 1021.47 1021.54 1021.51 1021.60 1021.32 1021.08 1021.02 1021.21 1021.20 1021.09 1020.94 1020.90 1020.93 1021.16 1021.39 1021.65
1018.35 1018.46 1018.85 1018.87 1018.83 1018.78 1019.61 1019.76 1019.81 1019.87 1020.22 1019.89 1020.44 1021.96 1022.89 1023.86 1024.76 1025.21 1025.38 1025.33 1025.03 1024.71 1024.53 1024.61 1024.41 1024.16 1023.90 1023.84 1023.88 1023.51 1023.02 1022.65 1022.02 1021.99 1022.17 1022.32 1022.39 1022.35 1022.22 1022.10 1021.98 1021.78 1021.61 1021.42 1021.26 1021.11 1021.15 1021.24 1021.01 1020.85 1020.83 1020.95 1021.06 1021.29
1018.89 1018.80 1019.02 1019.60 1019.72 1019.63 1019.63 1019.72 1019.80 1019.85 1020.10 1020.34 1021.30 1022.92 1024.28 1025.40 1026.14 1026.15 1026.01 1025.76 1025.48 1025.30 1025.31 1025.34 1025.29 1025.00 1024.77 1024.73 1024.66 1024.54 1024.28 1023.81 1023.34 1023.06 1023.43 1023.69 1023.67 1023.62 1023.26 1022.94 1022.62 1022.32 1022.09 1021.80 1021.50 1021.32 1021.17 1021.04 1021.08 1021.11 1020.85 1020.71 1020.78 1021.10
1019.21 1018.86 1019.59 1019.87 1020.40 1020.19 1019.65 1019.41 1019.65 1019.97 1020.61 1021.40 1022.43 1023.99 1025.39 1026.67 1027.43 1027.34 1026.99 1026.72 1026.64 1026.66 1026.60 1026.51 1026.36 1026.04 1025.96 1025.65 1025.51 1025.49 1025.42 1025.26 1025.17 1025.09 1024.97 1024.94 1024.85 1024.46 1023.92 1023.49 1023.06 1022.64 1022.29 1022.00 1021.72 1021.42 1021.33 1021.33 1021.34 1021.33 1021.40 1021.46 1021.69 1022.24
1019.04 1019.19 1019.55 1019.84 1019.93 1019.72 1019.47 1019.54 1019.75 1020.25 1021.09 1022.32 1023.33 1024.64 1026.28 1027.37 1028.01 1028.33 1028.21 1028.09 1027.96 1027.74 1027.55 1027.45 1027.24 1027.02 1026.76 1026.55 1026.31 1026.11 1026.14 1026.12 1025.96 1025.85 1025.70 1025.50 1025.18 1024.84 1024.42 1023.91 1023.35 1023.01 1022.74 1022.50 1022.27 1022.02 1021.90 1022.05 1022.18 1022.57 1022.91 1023.25 1023.61 1024.05
1019.41 1019.49 1019.52 1019.78 1019.97 1019.84 1019.73 1020.08 1020.59 1021.03 1021.97 1023.05 1024.47 1025.40 1026.65 1027.43 1028.57 1029.17 1029.29 1028.94 1028.75 1028.68 1028.54 1028.36 1028.15 1027.83 1027.45 1027.13 1026.88 1026.64 1026.55 1026.49 1026.33 1026.24 1026.07 1025.76 1025.50 1025.27 1024.92 1024.54 1023.99 1023.80 1023.62 1023.52 1023.39 1023.26 1023.25 1023.55 1023.94 1024.36 1024.82 1025.33 1025.79 1026.25
1019.51 1019.40 1019.45 1019.74 1019.94 1020.04 1020.10 1020.35 1020.68 1021.57 1022.67 1024.08 1025.04 1025.90 1027.01 1027.93 1029.10 1029.58 1029.62 1029.45 1029.50 1029.32 1028.89 1028.54 1028.21 1028.03 1027.76 1027.54 1027.34 1027.07 1026.82 1026.66 1026.42 1026.24 1026.17 1026.07 1025.96 1025.66 1025.40 1025.08 1024.74 1024.75 1024.78 1024.94 1025.09 1025.17 1025.32 1025.58 1026.06 1026.52 1026.99 1027.46 1027.97 1028.45
Wind_Speed
16 15 15 9 18 18 15 16 14 13 13 13 14 13 10 6 6 1 3 3 2 2 1 3 4 7 5 5 6 6 6 2 3 4 3 4 3 5 4 5 8 6 5 3 3 3 6 10 5 6 6 5 10 9
15 15 15 14 12 17 18 16 13 12 11 10 9 10 7 3 5 2 2 3 3 1 2 1 4 6 6 5 8 5 5 4 5 4 1 1 2 3 6 3 2 2 5 6 1 3 2 2 3 7 7 9 5 9
14 17 14 14 8 19 18 16 14 12 9 8 7 8 3 8 6 2 3 6 2 3 4 5 5 6 4 5 8 6 0 3 2 3 4 1 5 2 4 3 4 3 3 6 4 0 4 8 7 7 8 9 7 6
12 14 15 12 7 17 17 16 14 11 9 7 5 7 4 2 6 6 2 2 2 4 4 3 5 4 3 6 5 4 7 3 5 2 3 2 3 3 3 4 5 3 5 6 5 5 7 4 5 7 10 12 12 10
14 14 16 8 5 17 17 16 13 11 7 5 4 4 3 4 8 4 2 3 2 4 4 2 5 6 7 7 9 6 7 5 2 3 3 1 2 1 1 4 2 1 7 5 6 13 5 10 9 11 11 11 11 13
17 17 15 7 11 18 17 15 13 10 7 6 4 4 9 9 2 2 4 4 7 3 6 4 3 8 7 6 9 6 3 3 4 4 1 1 1 4 3 2 2 1 4 6 6 13 7 13 12 8 8 8 9 11
18 17 15 5 20 18 16 14 12 10 9 7 3 8 11 2 3 2 5 3 6 1 5 4 3 5 4 5 4 4 4 3 4 2 2 2 1 3 3 3 4 4 7 11 16 17 10 9 7 9 12 11 13 9
17 16 9 16 21 18 17 14 12 12 10 9 7 1 7 4 2 3 2 3 7 5 5 4 1 5 5 3 3 4 3 4 5 1 2 2 3 2 3 7 9 10 13 13 8 6 9 12 12 13 13 12 12 9
12 4 19 22 20 18 17 14 10 8 9 7 3 3 3 5 4 4 10 13 2 5 5 3 5 3 2 2 2 5 3 4 3 2 1 3 2 2 7 13 12 15 8 11 10 13 15 14 13 13 12 10 11 9
5 23 25 21 18 18 15 12 9 8 4 4 6 4 3 1 11 10 5 5 5 4 4 3 2 2 4 2 2 3 3 1 2 3 2 3 3 3 11 11 13 9 14 16 16 12 12 11 11 13 11 10 10 10
25 25 23 21 20 16 11 10 9 5 4 3 3 1 4 5 4 4 4 4 2 4 3 2 3 5 3 4 2 1 3 0 2 4 4 1 3 4 9 11 10 10 13 10 7 5 8 12 13 11 9 11 11 11
26 24 22 20 19 16 15 12 5 2 1 3 3 1 2 4 4 5 2 3 4 2 2 4 2 3 2 4 4 2 3 3 2 1 5 2 5 4 12 13 9 10 12 10 10 11 10 10 9 8 7 10 10 10
24 23 21 20 19 20 15 4 1 4 2 3 5 6 4 4 7 4 1 2 2 1 0 2 3 3 3 4 3 4 4 3 2 4 4 5 2 5 10 11 7 8 10 9 8 10 10 8 8 7 8 4 9 8
24 22 21 20 18 13 11 8 7 3 3 4 4 5 4 4 2 1 1 1 2 2 5 4 3 3 1 4 2 5 2 3 3 1 5 3 5 6 6 8 11 8 9 9 9 8 9 10 7 7 9 10 10 10
23 22 19 15 13 10 6 7 8 3 4 5 5 3 2 0 1 2 1 2 3 1 4 3 4 3 2 4 1 3 4 1 5 4 3 2 5 7 7 7 10 9 7 7 5 8 8 8 10 7 4 7 6 8
22 15 5 10 7 7 10 7 3 3 4 4 5 3 2 3 3 4 3 3 3 2 2 3 3 4 1 4 2 3 4 4 3 2 2 2 3 3 5 6 6 7 7 7 6 8 7 8 9 8 6 5 5 9
11 3 10 10 7 3 6 2 4 6 4 4 3 2 2 3 3 2 1 2 2 3 2 2 3 3 2 2 1 1 2 1 1 3 3 3 3 6 5 6 6 7 7 7 5 5 5 6 7 8 7 5 5 4
5 5 10 7 2 3 1 5 5 4 4 3 3 2 2 2 1 2 2 2 2 2 2 1 1 2 2 2 1 2 3 3 4 4 4 3 4 4 3 6 4 5 6 6 5 5 6 7 8 6 5 6 4 4
6 6 6 3 2 2 4 4 4 4 2 1 1 1 2 1 1 2 2 3 0 1 3 3 4 3 2 2 2 3 4 2 2 2 2 3 4 4 4 4 4 4 6 6 6 5 5 6 4 4 5 6 5 5
11 12 11 4 6 2 4 3 3 4 2 3 2 3 2 1 2 2 2 3 3 3 5 3 3 2 2 1 2 2 3 3 2 1 1 1 2 4 4 4 3 3 3 3 3 4 3 2 2 4 5 7 6 7
8 8 10 7 4 5 4 2 4 3 2 3 1 2 1 2 3 3 3 3 5 3 3 3 3 3 3 2 2 3 4 4 2 1 1 2 2 3 3 2 4 3 2 2 3 2 4 4 4 4 5 5 6 6
3 9 4 6 5 5 4 3 3 1 3 1 2 2 2 2 2 2 2 5 3 2 3 2 0 1 2 3 3 2 2 3 3 2 2 4 3 2 2 3 3 3 4 4 4 5 5 4 5 4 5 5 6 5
6 5 5 6 7 6 4 3 4 2 3 2 2 3 3 2 2 3 4 3 3 4 4 3 3 2 2 3 4 5 4 5 4 5 3 3 2 2 2 4 4 5 4 5 5 5 5 7 7 6 5 3 4 5
6 5 4 3 4 1 3 4 2 3 3 2 2 1 1 1 2 4 2 3 2 3 4 6 5 4 3 6 5 5 6 5 4 4 5 4 1 1 3 4 4 4 4 3 4 4 4 4 5 5 5 4 5 6
6 5 6 4 3 5 4 4 4 4 1 1 3 3 2 2 3 2 2 2 2 4 3 4 4 4 3 2 3 3 4 4 3 3 4 5 3 2 3 2 1 2 1 2 2 2 2 3 4 5 5 5 7 7
4 4 4 3 3 3 4 2 2 5 3 2 1 2 2 3 3 1 2 1 1 2 2 3 3 2 2 2 2 2 3 3 3 1 2 4 3 2 2 2 1 3 6 1 2 2 2 3 3 6 5 6 6 6
3 3 2 1 1 1 4 2 2 4 2 3 3 2 2 2 3 1 2 3 2 2 2 3 2 2 2 4 3 3 4 4 3 2 1 3 4 4 4 3 3 2 3 3 3 2 1 2 3 4 4 2 4 6
4 1 2 4 3 1 3 2 2 3 2 2 4 2 6 5 3 1 2 2 3 4 3 4 5 4 3 4 4 5 4 7 3 4 5 6 6 7 7 4 3 5 3 2 2 2 2 0 2 1 2 4 4 4
1 3 4 3 4 3 2 3 3 1 1 1 2 3 3 3 3 3 3 4 4 4 4 5 5 5 4 4 6 6 6 7 7 7 7 4 4 5 5 4 4 4 5 4 6 1 1 2 2 2 3 3 3 2
4 1 3 1 3 3 2 1 3 2 3 3 4 4 3 3 3 4 5 5 5 5 4 4 4 5 4 5 3 5 6 6 6 4 3 2 3 5 5 5 5 4 4 4 4 4 3 3 3 4 3 4 6 7
0 1 0 1 3 2 2 3 2 3 3 4 4 4 3 3 1 4 6 5 3 4 5 5 4 5 5 5 4 3 3 5 5 6 4 3 3 4 5 5 5 4 4 4 4 4 3 3 3 7 9 10 12 10
1 3 2 0 1 1 1 2 3 3 2 3 2 3 2 3 3 2 4 4 3 5 5 4 4 4 5 3 4 3 3 1 2 3 5 4 4 4 4 4 4 4 5 7 7 7 9 10 9 10 11 13 13 13
2 1 1 1 1 1 2 2 2 3 4 3 3 3 2 3 3 1 2 3 1 2 4 4 3 2 4 3 4 4 4 2 4 5 5 7 7 7 4 4 4 5 8 8 8 9 11 14 12 12 12 12 12 11
Wind_Direction
154 159 149 134 173 163 175 176 180 186 182 187 202 219 223 230 278 307 254 222 211 146 262 154 162 131 122 136 138 203 66 18 58 159 172 204 143 198 121 177 161 154 141 163 108 119 231 148 117 162 178 87 124 115
156 157 155 135 147 173 194 174 169 173 167 187 213 203 217 277 291 34 267 237 162 242 216 76 128 126 171 185 134 32 133 172 176 132 188 123 179 91 144 167 127 165 170 154 173 194 348 7 129 110 128 133 133 123
165 159 148 158 108 170 172 166 166 164 177 199 223 174 145 275 323 311 250 227 153 102 38 32 79 321 64 161 140 123 249 178 210 172 149 155 80 68 127 195 108 84 122 97 116 138 94 100 85 95 118 119 131 128
169 154 138 116 135 191 162 162 159 159 178 214 185 157 205 298 277 261 217 234 153 110 89 354 328 19 339 115 84 148 145 109 112 96 99 115 121 287 213 153 118 178 95 118 70 97 91 63 100 120 104 102 96 82
162 138 120 101 168 157 149 152 150 149 165 170 159 106 283 285 289 317 263 277 270 123 110 111 34 329 44 84 98 100 113 110 89 60 64 164 117 113 354 75 72 157 160 154 195 173 134 156 142 124 121 125 119 109
148 138 126 113 181 146 146 145 142 145 158 159 89 332 309 307 271 112 44 327 22 17 94 77 289 16 17 59 72 69 65 78 83 111 183 336 36 137 94 108 343 360 112 144 163 149 134 140 131 125 129 126 131 119
152 138 140 249 152 142 139 141 140 147 143 102 82 276 289 327 51 160 164 236 345 255 87 70 23 338 334 32 28 25 30 61 90 101 91 135 340 77 96 145 161 90 100 107 115 114 107 151 153 148 117 113 116 108
144 144 172 165 139 141 138 137 141 145 145 164 231 75 80 104 123 356 347 15 343 81 74 100 58 19 15 20 39 354 39 27 16 74 29 80 353 43 66 133 129 119 110 113 121 81 129 122 116 116 121 124 118 120
131 190 163 135 133 135 135 140 152 153 162 198 244 117 89 24 3 259 312 309 207 113 111 97 128 188 7 31 52 20 48 41 299 62 33 83 314 232 176 154 151 151 143 139 112 116 131 131 132 137 138 142 138 144
171 140 129 130 132 125 127 139 142 130 129 315 34 44 17 143 267 281 358 29 20 3 40 89 123 128 100 27 27 64 7 129 63 263 44 69 250 269 159 162 155 157 136 132 124 141 144 152 151 159 165 159 158 159
136 130 136 139 134 131 134 123 116 102 20 30 48 134 242 297 19 27 22 68 336 48 22 81 101 117 349 102 150 194 189 60 96 261 112 309 280 208 156 149 154 146 143 146 133 123 150 157 159 162 158 159 160 159
130 132 131 130 130 127 126 117 112 42 162 180 164 144 19 38 40 65 347 353 47 138 351 104 117 118 36 96 96 325 111 42 176 175 77 254 252 164 148 155 152 146 143 136 145 146 146 154 156 154 144 155 155 150
128 126 126 125 121 117 119 181 301 93 38 29 40 44 47 324 47 95 162 358 56 313 107 98 53 95 43 52 65 73 71 217 46 49 222 227 246 130 143 143 141 145 144 143 145 156 157 153 139 137 129 120 132 136
124 123 121 126 130 121 123 100 51 54 70 74 75 38 92 3 55 31 45 139 263 112 106 101 61 97 96 56 119 87 236 69 47 17 242 250 177 142 123 136 135 141 145 142 144 146 151 150 144 129 146 150 144 157
117 116 117 111 100 107 116 35 33 50 61 55 50 54 63 346 14 328 276 54 332 228 83 59 51 83 40 82 73 99 37 240 201 232 247 239 142 136 127 123 126 127 129 127 129 133 139 137 147 141 141 150 145 139
108 93 91 120 126 93 42 9 22 69 55 64 45 48 352 59 10 17 14 14 335 19 53 54 96 64 297 144 103 203 149 210 245 286 338 66 94 97 119 120 129 136 141 138 141 142 137 145 156 159 124 138 157 161
91 89 160 157 118 35 338 18 57 49 63 43 37 10 89 63 36 29 52 303 304 61 55 66 90 198 109 64 73 88 152 34 48 35 354 28 131 139 121 117 134 142 139 140 129 129 127 111 117 132 162 200 177 174
58 90 90 81 62 298 17 43 69 72 60 9 66 18 37 42 57 341 304 316 65 65 62 121 227 75 87 104 15 34 69 55 54 51 31 37 57 63 88 140 135 140 137 133 133 132 131 147 165 189 150 145 144 156
99 70 45 15 43 57 82 16 79 86 55 24 27 355 105 170 229 303 342 344 107 154 93 29 44 35 68 20 5 38 37 36 90 74 18 31 97 109 98 91 98 111 137 143 154 171 172 178 174 151 154 160 188 185
79 35 349 291 180 89 63 15 64 84 104 233 56 21 94 157 298 343 332 12 38 55 45 45 44 8 44 6 356 41 30 353 124 106 99 9 97 120 141 145 147 140 121 104 98 122 124 130 175 173 173 177 179 198
32 334 352 23 34 54 83 41 49 118 127 90 192 63 6 4 19 6 5 349 53 29 66 43 57 4 53 65 38 13 23 16 17 357 330 187 191 139 146 151 137 141 142 148 165 198 171 193 186 191 176 187 191 191
326 350 29 14 56 28 64 9 117 146 76 187 53 76 55 32 344 343 308 53 55 42 26 62 38 340 353 9 29 48 338 330 295 285 85 113 125 158 176 177 156 178 178 189 189 203 213 203 195 198 185 201 191 198
4 27 30 29 54 38 276 2 68 51 100 275 40 50 4 28 300 339 62 76 77 21 32 19 306 254 227 331 68 36 7 1 8 12 12 296 210 166 165 186 187 186 197 210 198 203 212 210 200 197 202 174 168 199
23 53 52 43 73 252 355 359 27 60 40 70 84 55 34 203 8 47 70 64 68 51 39 358 7 5 24 35 47 37 7 5 358 355 358 338 1 23 202 210 196 204 196 179 183 201 200 202 194 183 182 178 185 193
65 327 81 341 331 59 36 13 358 55 97 239 74 356 283 62 66 65 141 74 18 39 22 6 6 31 50 6 16 357 355 11 352 337 4 353 338 18 32 19 332 342 22 148 196 193 216 193 182 183 183 184 193 197
75 284 104 198 276 117 188 99 173 193 130 58 199 256 48 79 63 278 56 360 18 17 341 353 339 357 2 348 324 333 308 311 328 350 6 3 19 53 19 15 3 6 360 340 154 206 261 238 208 192 191 199 193 185
66 296 288 262 165 77 24 7 57 95 109 159 202 116 93 206 232 202 116 11 7 316 300 309 13 19 319 320 326 347 358 350 308 281 338 44 44 37 54 66 30 289 324 9 45 93 102 342 254 223 201 177 198 199
203 100 130 277 28 46 133 51 101 195 236 302 92 138 173 186 186 66 31 305 309 314 40 49 16 354 349 30 24 356 341 333 305 108 91 61 40 30 18 15 2 353 354 1 38 32 51 53 11 5 197 206 214 195
14 283 78 4 358 28 135 159 184 75 342 328 104 108 108 60 7 6 359 356 4 17 49 31 10 4 25 58 46 32 19 11 33 79 71 43 5 7 351 348 351 349 347 345 342 200 109 120 109 58 322 217 191 149
284 78 75 122 119 221 223 323 111 105 51 86 102 98 84 71 25 1 14 19 33 28 27 38 19 21 18 19 20 43 31 27 28 33 40 16 348 322 332 341 335 327 327 334 338 333 350 28 14 21 34 45 77 75
234 79 352 143 204 232 150 99 56 91 100 75 36 91 114 133 93 29 22 6 24 28 33 23 15 11 13 10 6 15 17 19 23 23 11 328 326 329 333 335 338 340 359 5 6 1 43 41 66 77 70 69 73 78
151 197 181 207 192 257 80 137 170 150 100 88 104 97 98 84 73 14 347 352 28 29 6 358 354 339 339 340 2 21 86 6 348 0 7 357 346 340 338 339 352 9 27 35 35 40 57 71 74 75 75 74 74 75
340 66 85 72 89 184 255 116 182 98 38 61 38 102 70 94 103 208 303 9 81 350 312 295 285 289 323 17 9 357 13 348 13 21 35 38 33 21 5 1 19 39 53 52 48 54 62 72 74 76 77 78 77 76